JCSAT-13

Last updated on Fri Feb 06 2026 00:02:51 GMT+0000 (Coordinated Universal Time)

1 38331U 12023A 26036.65196549 -.00000358 00000+0 00000+0 0 9993 2 38331 0.0417 258.7125 0001341 69.0959 166.6791 1.00273366 50222
UTC large
Height (km)
Speed (km/s)
/
Latitude / Longitude
Inclination (degrees)
Orbital Period (minutes)
Azimuth
Elevation
Range (km)
Doppler Factor

Next 0 passes for location: London (51.5072 / 0.1276)

Sorry there are no passes over London.